| time (UTC) | temp F | wind direction | speed MPH | gust MPH | rain 1hr in | rain 24hr in | rain mn in | humidity % | barometer mb |
| 20260502211558 | 50 | 207 | 0.0 | 1.0 | 0.00 | 0.00 | 0.00 | 89 | 1009.7 |
| 20260502210103 | 50 | 207 | 0.0 | 1.0 | 0.00 | 0.00 | 0.00 | 88 | 1009.8 |
| 20260502204608 | 50 | 269 | 0.0 | 1.0 | 0.00 | 0.01 | 0.00 | 85 | 1009.8 |
| 20260502203111 | 51 | 264 | 0.0 | 1.0 | 0.00 | 0.01 | 0.00 | 80 | 1009.7 |
| 20260502201555 | 52 | 292 | 0.0 | 1.0 | 0.00 | 0.01 | 0.00 | 78 | 1009.7 |
| 20260502200055 | 52 | 222 | 0.0 | 1.0 | 0.00 | 0.01 | 0.00 | 79 | 1009.7 |
| 20260502194557 | 54 | 276 | 0.0 | 3.0 | 0.00 | 0.01 | 0.00 | 76 | 1009.7 |
| 20260502193054 | 56 | 235 | 0.0 | 2.0 | 0.00 | 0.01 | 0.00 | 69 | 1009.6 |
| 20260502191607 | 57 | 184 | 0.0 | 1.0 | 0.00 | 0.01 | 0.00 | 65 | 1009.7 |
| 20260502190104 | 57 | 184 | 0.0 | 4.0 | 0.00 | 0.01 | 0.00 | 64 | 1009.6 |
| 20260502184550 | 57 | 13 | 0.0 | 3.0 | 0.00 | 0.01 | 0.00 | 65 | 1009.9 |
| 20260502183058 | 57 | 146 | 0.0 | 0.0 | 0.00 | 0.01 | 0.00 | 65 | 1010.0 |
| 20260502181547 | 57 | 248 | 0.0 | 0.0 | 0.00 | 0.01 | 0.00 | 64 | 1009.9 |
| 20260502163057 | 55 | 155 | 0.0 | 0.0 | 0.00 | 0.01 | 0.00 | 78 | 1010.9 |
| 20260502161535 | 54 | 112 | 0.0 | 0.0 | 0.00 | 0.01 | 0.00 | 78 | 1011.2 |
| 20260502151526 | 52 | 108 | 0.0 | 0.0 | 0.00 | 0.01 | 0.00 | 85 | 1011.4 |
| 20260502123003 | 45 | 254 | 0.0 | 0.0 | 0.00 | 0.01 | 0.00 | 93 | 1012.5 |
| 20260502121502 | 45 | 254 | 0.0 | 0.0 | 0.00 | 0.01 | 0.00 | 93 | 1012.6 |
| 20260502120104 | 0 | 0.0 | 0.0 | 0.00 | 0.01 | 0.00 | 1012.3 | ||
| 20260502114605 | 0 | 0.0 | 0.0 | 0.00 | 0.01 | 0.00 | 1012.4 | ||
| 20260502113056 | 0 | 0.0 | 0.0 | 0.00 | 0.01 | 0.00 | 1012.7 | ||
| 20260502111552 | 0 | 0.0 | 0.0 | 0.00 | 0.01 | 0.00 | 1012.6 | ||
| 20260502110047 | 0 | 0.0 | 0.0 | 0.00 | 0.01 | 0.00 | 1011.9 | ||
| 20260502104542 | 0 | 0.0 | 0.0 | 0.00 | 0.01 | 0.00 | 1010.9 | ||
| 20260502103039 | 0 | 0.0 | 0.0 | 0.00 | 0.01 | 0.00 | 1011.3 | ||
| 20260502101533 | 0 | 0.0 | 0.0 | 0.00 | 0.01 | 0.00 | 1011.2 | ||
| 20260502091517 | 0 | 0.0 | 0.0 | 0.00 | 0.01 | 0.00 | 1011.3 | ||
| 20260502070048 | 0 | 0.0 | 0.0 | 0.00 | 0.01 | 0.00 | 1011.1 | ||
| 20260502064542 | 0 | 0.0 | 0.0 | 0.00 | 0.01 | 0.00 | 1011.2 | ||
| 20260502063029 | 0 | 0.0 | 0.0 | 0.00 | 0.01 | 0.00 | 1011.4 | ||
| 20260502061524 | 0 | 0.0 | 0.0 | 0.00 | 0.01 | 0.00 | 1011.0 | ||
| 20260502060019 | 0 | 0.0 | 0.0 | 0.00 | 0.01 | 0.00 | 1010.8 | ||
| 20260502054515 | 0 | 0.0 | 0.0 | 0.00 | 0.01 | 0.00 | 1011.0 | ||
| 20260502053010 | 0 | 0.0 | 0.0 | 0.00 | 0.01 | 0.00 | 1011.2 | ||
| 20260502051512 | 0 | 0.0 | 0.0 | 0.00 | 0.01 | 0.00 | 1011.1 | ||
| 20260502050002 | 0 | 205 | 0.0 | 0.0 | 0.00 | 0.01 | 0.00 | 1011.1 | |
| 20260502044559 | 46 | 207 | 0.0 | 0.0 | 0.00 | 0.01 | 0.00 | 76 | 1011.1 |
| 20260502043106 | 45 | 207 | 0.0 | 0.0 | 0.00 | 0.01 | 0.00 | 77 | 1011.4 |
| 20260502041555 | 45 | 207 | 0.0 | 0.0 | 0.00 | 0.01 | 0.00 | 77 | 1011.4 |
| 20260502040052 | 45 | 162 | 0.0 | 0.0 | 0.00 | 0.01 | 0.00 | 75 | 1011.3 |
| 20260502034551 | 46 | 148 | 0.0 | 0.0 | 0.00 | 0.01 | 0.01 | 73 | 1011.3 |
| 20260502033051 | 46 | 146 | 0.0 | 0.0 | 0.00 | 0.01 | 0.01 | 72 | 1011.2 |
| 20260502031551 | 46 | 146 | 0.0 | 0.0 | 0.00 | 0.01 | 0.01 | 73 | 1011.2 |
| 20260502030050 | 46 | 146 | 0.0 | 0.0 | 0.00 | 0.01 | 0.01 | 72 | 1011.2 |
| 20260502024548 | 46 | 146 | 0.0 | 0.0 | 0.00 | 0.01 | 0.01 | 72 | 1011.2 |
| 20260502023049 | 46 | 66 | 0.0 | 0.0 | 0.00 | 0.01 | 0.01 | 72 | 1011.2 |
| 20260502021550 | 46 | 66 | 0.0 | 0.0 | 0.00 | 0.01 | 0.01 | 69 | 1011.0 |
| 20260502020047 | 46 | 67 | 0.0 | 0.0 | 0.00 | 0.01 | 0.01 | 68 | 1011.2 |
| 20260502014555 | 46 | 66 | 0.0 | 0.0 | 0.00 | 0.01 | 0.01 | 66 | 1011.3 |
| 20260502013052 | 47 | 66 | 0.0 | 0.0 | 0.00 | 0.01 | 0.01 | 64 | 1011.1 |
| 20260502011549 | 48 | 66 | 0.0 | 0.0 | 0.00 | 0.01 | 0.01 | 62 | 1011.0 |
| 20260502010043 | 49 | 66 | 0.0 | 0.0 | 0.00 | 0.01 | 0.01 | 60 | 1010.9 |
| 20260502004545 | 50 | 66 | 0.0 | 0.0 | 0.00 | 0.01 | 0.01 | 57 | 1010.7 |
| 20260502003041 | 51 | 66 | 0.0 | 0.0 | 0.00 | 0.01 | 0.01 | 55 | 1010.6 |
| 20260502001541 | 52 | 66 | 0.0 | 0.0 | 0.00 | 0.01 | 0.01 | 54 | 1010.4 |
| 20260502000051 | 54 | 66 | 0.0 | 0.0 | 0.00 | 0.01 | 0.01 | 47 | 1010.0 |
| 20260501234539 | 55 | 66 | 0.0 | 0.0 | 0.00 | 0.01 | 0.01 | 47 | 1009.9 |
| 20260501233040 | 57 | 66 | 0.0 | 0.0 | 0.00 | 0.01 | 0.01 | 44 | 1009.5 |
| 20260501231546 | 57 | 66 | 0.0 | 0.0 | 0.00 | 0.01 | 0.01 | 42 | 1009.3 |
| 20260501230041 | 59 | 208 | 0.0 | 0.0 | 0.00 | 0.01 | 0.01 | 41 | 1009.3 |
| 20260501224538 | 59 | 81 | 0.0 | 0.0 | 0.00 | 0.01 | 0.01 | 38 | 1009.3 |
| 20260501223041 | 60 | 190 | 0.0 | 0.0 | 0.00 | 0.01 | 0.01 | 38 | 1009.2 |
| 20260501221536 | 60 | 249 | 0.0 | 0.0 | 0.00 | 0.01 | 0.01 | 37 | 1009.1 |
| 20260501220034 | 60 | 281 | 0.0 | 0.0 | 0.00 | 0.01 | 0.01 | 36 | 1009.0 |
| 20260501214539 | 60 | 254 | 0.0 | 0.0 | 0.00 | 0.01 | 0.01 | 38 | 1008.9 |
| 20260501213034 | 60 | 36 | 0.0 | 0.0 | 0.01 | 0.01 | 0.01 | 38 | 1008.8 |